Location: Napa Soda Springs
(38.3907°N, 122.2794°W)
Time: 21:25:06
(UTC+00:00)

Cosmos 2098 Rocket - Pass Details

Date: 29 October 2020
Orbit: 366 x 1184 km, 82.9° (Epoch: 24 November)

Event Time Altitude Azimuth Distance (km) Brightness Sun altitude
Rises 13:59:09 0° 197° (SSW) 3,757 7.0 -7.3°
Reaches altitude 10° 14:02:00 10° 202° (SSW) 2,695 6.2 -6.7°
Maximum altitude 14:07:58 52° 278° (W) 1,018 3.8 -5.6°
Drops below altitude 10° 14:12:46 10° 355° (N) 2,171 5.7 -4.7°
Sets 14:14:52 0° 0° (N) 2,969 6.4 -4.3°
